Location: Bastrop State Park
(30.1090°N, 97.2819°W)
Time: 21:59:34
(UTC-05:00)

Daily predictions for brighter satellites

Satellite Brightness Start Highest point End
(mag) Time Altitude Azimuth Time Altitude Azimuth Time Altitude Azimuth
FengYun 1-2 T 4.3 20:47:04 10° SSE 20:52:39 83° ENE 20:58:18 10° N
NOSS 2-2 (C) 4.2 20:50:30 10° S 20:53:58 28° ESE 20:57:37 10° NE
Cosmos 2221 Rocket 3.9 20:49:59 10° N 20:54:18 49° E 20:58:34 10° SSE
Cosmos 494 Rocket 4.0 20:50:39 10° N 20:55:54 70° ENE 21:01:06 10° SSE
Cosmos 1892 4.2 20:53:35 10° SE 20:56:14 18° E 20:58:54 10° NE
H-2A R/B 3.2 20:53:26 10° SE 20:56:56 41° ENE 21:00:25 10° N
Resurs 1-3 4.2 20:53:26 10° S 20:57:46 62° W 21:02:07 10° NNW
USA 186 2.3 20:55:46 10° SE 20:58:25 34° ENE 21:01:16 10° N
Meteosat 1 Rocket2 4.3 20:55:44 10° WSW 21:01:13 57° SSE 21:09:46 10° E
Cosmos 2181 Rocket 4.3 20:55:18 10° N 21:01:32 50° E 21:07:39 10° SSE
CZ-4C R/B 3.9 21:00:28 10° NW 21:07:36 49° WSW 21:15:09 10° S
Cosmos 1709 Rocket 4.2 21:06:07 10° S 21:12:12 78° W 21:18:22 10° N
NOSS 2-2 (E) 3.5 21:09:07 10° SSW 21:13:05 56° ESE 21:17:23 10° NE
CZ-4B DEB 4.5 21:13:28 10° SSW 21:16:29 34° W 21:19:31 10° NNW
Cosmos 2074 Rocket 4.3 21:13:06 10° SSE 21:19:03 47° E 21:25:02 10° NNE
Myojo/LAPS 4.4 21:19:09 10° SW 21:22:42 20° S 21:23:44 17° SE
GPS 2-14 Rocket1 4.3 21:20:04 10° SW 21:22:50 19° S 21:24:38 14° SSE
Cosmos 909 Rocket 4.1 21:18:24 10° SSW 21:24:38 77° ESE 21:31:49 10° NNE
ERS-1 Rocket 3.4 21:22:05 13° SE 21:26:17 44° ENE 21:31:02 10° N
H-2A R/B 3.4 21:24:05 16° ESE 21:26:21 24° ENE 21:29:48 10° NNE
Cosmos 1356 Rocket 3.6 21:22:40 10° S 21:26:43 52° E 21:30:51 10° NNE
Resurs 01 Rocket 4.3 21:28:33 10° SW 21:31:29 17° W 21:34:24 10° NW
ALOS 2.9 21:27:30 10° S 21:32:04 56° W 21:36:39 10° NNW
GPS 2-05 Rocket1 3.6 21:30:15 10° SW 21:33:37 34° SSE 21:35:06 24° ESE
Cosmos 389 Rocket 4.1 21:31:26 10° NNW 21:34:36 34° W 21:37:46 10° SSW
ATLAS 5 CENTAUR R/B 3.5 21:38:17 10° N 21:43:36 30° NE 21:46:55 19° E
Cosmos 2278 Rocket 3.3 21:43:31 21° ESE 21:43:59 22° E 21:48:11 10° NE
Sich 1 Rocket 4.3 21:42:39 24° SE 21:44:40 35° E 21:48:51 10° NNE
Cosmos 1844 4.2 21:41:00 10° S 21:46:12 38° ESE 21:51:30 10° NE
CZ-4 DEB 3.1 21:44:22 18° S 21:46:36 61° WSW 21:49:45 10° NNW
Abrixas rocket 3.8 21:45:49 10° NNW 21:48:46 27° NE 21:49:51 22° ENE
OAO 3 Copernicus 4.5 21:46:25 10° WNW 21:51:26 60° SSW 21:53:49 30° SE
Cosmos 1943 4.3 21:47:00 10° NW 21:52:15 41° WSW 21:57:28 10° S
Okean 1-7 4.1 21:49:17 10° NNW 21:53:21 43° W 21:57:27 10° SSW
Cosmos 1825 4.0 21:54:31 18° ENE 21:54:31 18° ENE 21:56:12 10° NE
USA 234 3.4 21:48:12 10° NE 21:54:27 47° SE 22:00:39 10° SSW
CZ-4B R/B 4.3 21:50:42 10° NE 21:54:50 27° E 21:54:54 27° E
Cosmos 1340 Rocket 4.4 21:52:08 10° SSW 21:55:47 36° W 21:59:30 10° NNW
Cosmos 2056 Rocket 3.5 21:51:05 10° SSW 21:56:17 81° WNW 22:01:26 10° NNE
Cosmos 1844 Rocket 2.6 21:51:44 10° S 21:57:21 69° ESE 22:02:58 10° NNE
Cosmos 1939 Rocket 2.6 21:57:31 37° SSE 21:58:57 74° ENE 22:02:50 10° N
Cosmos 1674 Rocket 3.9 21:56:45 10° N 22:01:02 46° E 22:02:00 39° ESE
Meteor 1-27 Rocket 4.4 22:00:33 10° NNE 22:05:35 34° ENE 22:06:41 32° ESE
Cosmos 1782 2.9 22:04:14 10° N 22:08:11 54° E 22:08:35 51° ESE
Atlas Centaur 2 0.9 22:07:54 10° W 22:11:28 87° N 22:12:00 63° E
Coronas F rocket 3.9 22:11:40 11° SW 22:13:28 20° W 22:15:33 10° NNW
YAOGAN 6 3.8 22:14:37 29° NE 22:14:37 29° NE 22:16:58 10° N
Cosmos 1408 4.0 22:15:26 27° NE 22:15:26 27° NE 22:17:31 10° NNE
SL-27 R/B 3.4 22:13:30 10° N 22:16:20 36° NE 22:16:20 36° NE
MetOp-A 4.3 22:16:22 42° SE 22:17:48 56° ENE 22:23:01 10° N
Cosmos 2154 Rocket 3.9 22:17:46 26° S 22:21:28 76° E 22:27:40 10° N
COS B Rocket 3.2 22:20:27 10° N 22:24:24 72° ENE 22:24:24 72° ENE
CENTAUR R/B 3.1 22:18:47 10° NNW 22:26:53 87° ENE 22:30:41 37° SSE
Cosmos 1606 3.3 22:26:21 10° N 22:29:28 47° NE 22:29:28 47° NE
Cosmos 1908 Rocket 3.6 22:31:02 56° SSW 22:31:53 77° W 22:36:18 10° N
FALCON 9 R/B 4.1 21:51:49 10° WNW 22:32:27 73° SSW 22:37:44 37° SE
Envisat 3.6 22:34:09 31° SSW 22:36:15 51° W 22:41:12 10° NNW
H-2A R/B 3.6 22:36:42 23° ENE 22:36:42 23° ENE 22:40:31 10° NNE
Cosmos 1295 Rocket 4.5 22:42:45 57° SE 22:43:36 62° E 22:49:48 10° NNE
Cosmos 1420 Rocket 4.5 22:46:17 46° ENE 22:46:17 46° ENE 22:50:17 10° NNE
Cosmos 1378 Rocket 3.9 22:41:41 10° N 22:45:11 56° NNE 22:45:11 56° NNE
deb Centaur AC-2 4.2 22:43:59 10° W 22:49:10 81° W 22:49:10 81° W
SPOT 1/Viking Rocket 3.4 22:51:06 79° E 22:51:08 80° ENE 22:56:21 10° N
ERBS 4.3 22:48:13 10° NNW 22:50:03 28° NNW 22:50:03 28° NNW
Delta 168 4.2 22:42:42 10° WSW 22:52:07 61° S 22:52:55 58° SSE
CZ-3C R/B 3.3 22:35:13 10° WSW 22:55:36 37° S 22:55:54 37° S
Cosmos 1452 Rocket 4.3 22:56:45 24° SW 22:59:36 48° WNW 23:04:42 10° N
SPOT 5 3.9 22:58:36 37° SW 22:59:43 42° W 23:04:44 10° NNW
Cosmos 407 Rocket 3.6 22:56:53 10° NNW 23:02:05 73° W 23:02:05 73° W
H-2A R/B 4.1 23:01:13 20° WSW 23:02:13 21° W 23:05:33 10° NW
COSMOS 2406 4.2 23:07:05 10° NW 23:12:18 37° WSW 23:13:05 36° WSW
Terra 3.2 23:16:52 31° NNE 23:16:52 31° NNE 23:19:35 10° N
Cosmos 2218 Rocket 3.9 23:17:25 78° NE 23:17:25 78° NE 23:23:31 10° N
Okean 2 Rocket 4.4 23:20:05 38° NW 23:20:05 38° NW 23:23:21 10° N
Cosmos 1140 Rocket 4.4 23:14:05 10° N 23:17:37 40° NNE 23:17:37 40° NNE
ARGOS 3.5 23:20:05 60° WNW 23:20:05 60° WNW 23:24:59 10° NNW
SL-08 R/B 4.5 23:23:48 81° NNE 23:23:48 81° NNE 23:29:55 10° N
BREEZE-M DEB (TANK) 4.2 23:20:40 10° NW 23:26:27 32° N 23:26:27 32° N
Cosmos 2278 Rocket 3.4 23:25:14 26° WSW 23:27:43 38° WNW 23:32:59 10° N
ATLAS 5 CENTAUR R/B 3.2 23:22:35 10° NW 23:28:24 41° WSW 23:28:29 41° WSW
USA 234 4.4 23:31:19 10° NNE 23:37:16 39° NW 23:43:12 10° WSW
Cosmos 1833 Rocket 4.4 23:35:54 10° N 23:39:00 24° NE 23:39:00 24° NE
Cosmos 2082 Rocket 3.5 23:47:58 10° N 23:51:28 34° NNE 23:51:28 34° NNE
